Location: Betz
(49.1556°N, 2.9558°E)
Time: 18:59:43
(UTC+00:00)

GP-B - Pass Details

Date: 18 September 2019
Orbit: 631 x 635 km, 89.8° (Epoch: 20 October)

Event Time Altitude Azimuth Distance (km) Brightness Sun altitude
Rises 19:05:25 0° 358° (N) 2,943 6.8 -12.0°
Reaches altitude 10° 19:07:40 10° 356° (N) 2,029 6.0 -12.4°
Maximum altitude 19:12:05 65° 275° (W) 701 3.6 -13.1°
Drops below altitude 10° 19:16:27 10° 194° (SSW) 2,011 5.6 -13.8°
Sets 19:18:40 0° 192° (SSW) 2,913 6.4 -14.1°
